EHI
0 0 0 0 0 0 0 0 0 0 1 1 1 1 2 1 2 4 3 1 0 0 0 0 1 2 3 3 3 3 4 6 6 5 4 3 3 3 3 3 2 1 1 0
0 0 0 0 0 0 0 0 0 0 0 1 1 2 2 1 1 2 2 1 0 0 0 0 1 3 3 3 3 2 3 4 5 4 4 3 3 3 2 2 2 2 1 1
0 0 0 0 0 0 0 0 0 0 0 1 3 3 2 1 0 1 1 0 0 0 0 1 2 3 3 3 3 3 3 4 4 5 4 3 3 2 1 1 1 1 1 0
0 0 0 0 0 0 0 0 0 0 1 1 2 2 1 0 0 0 0 0 0 0 0 1 2 3 3 3 3 3 3 4 5 5 4 3 2 1 0 0 0 0 0 0
0 0 0 0 0 0 0 0 0 0 1 2 1 1 0 0 0 0 0 0 0 0 0 0 1 2 2 2 3 3 3 4 5 5 3 1 1 1 0 0 0 0 0 0
0 0 0 0 0 0 0 0 0 0 1 2 1 0 0 0 0 0 0 0 0 0 0 0 0 1 1 1 1 2 2 3 3 3 2 1 0 0 1 1 1 0 0 0
0 0 0 0 0 0 0 0 0 0 0 1 1 0 0 0 0 0 0 0 0 0 0 0 0 0 0 0 0 1 1 1 1 1 1 0 0 1 2 2 1 0 0 0
0 0 0 0 0 0 0 0 0 0 0 0 0 0 0 0 0 0 0 0 0 0 0 0 0 0 0 0 0 0 0 1 0 0 0 0 0 1 2 2 1 0 0 0
0 0 0 0 0 0 0 0 0 0 0 0 0 0 0 0 0 0 0 0 0 0 0 0 0 0 0 0 0 0 0 0 0 0 0 0 0 1 1 1 1 0 0 0
0 0 0 0 0 0 0 0 0 0 0 0 0 0 0 0 0 0 0 0 0 0 0 0 0 0 0 0 0 0 0 0 0 0 0 0 0 0 0 0 0 0 0 0
0 0 0 0 0 0 0 0 0 0 0 0 0 0 0 0 0 0 0 0 0 0 0 0 0 0 0 0 0 0 0 0 0 0 0 0 0 0 0 0 0 0 0 0
0 0 0 0 0 0 0 0 0 0 0 0 0 0 0 0 0 0 0 0 0 0 0 0 0 0 0 0 0 0 0 0 0 0 0 0 0 0 0 0 0 0 0 0
0 0 0 0 0 0 0 0 0 0 0 0 0 0 0 0 0 0 0 0 0 0 0 0 0 0 0 0 0 0 0 0 0 0 0 0 0 0 0 0 0 0 0 0
0 0 0 0 0 0 0 0 0 0 0 0 0 0 0 0 0 0 0 0 0 0 0 0 0 0 0 0 0 0 0 0 0 0 0 0 0 0 0 0 0 0 0 0
0 0 0 0 0 0 0 0 0 0 0 0 0 0 0 0 0 0 0 0 0 0 0 0 0 0 0 0 0 0 0 0 0 0 0 0 0 0 0 0 0 0 0 0
0 0 0 0 0 0 0 0 0 0 0 0 0 0 0 0 0 0 0 0 0 0 0 0 0 0 0 0 0 0 0 0 0 0 0 0 0 0 0 0 0 0 0 0
0 0 0 0 0 0 0 0 0 0 0 0 0 0 0 0 0 0 0 0 0 0 0 0 0 0 0 0 0 0 0 0 0 0 0 0 0 0 0 0 0 0 0 0
0 0 0 0 0 0 0 0 0 0 0 0 0 0 0 0 0 0 0 0 0 0 0 0 0 0 0 0 0 0 0 0 0 0 0 0 0 0 0 0 0 0 0 0
0 0 0 0 0 0 0 0 0 0 0 0 0 0 0 0 0 0 0 0 0 0 0 0 0 0 0 0 0 0 0 0 0 0 0 0 0 0 0 0 0 0 0 0
0 0 0 0 0 0 0 0 0 0 0 0 0 0 0 0 0 0 0 0 0 0 0 0 0 0 0 0 0 0 0 0 0 0 0 0 0 0 0 0 0 0 0 0
0 0 0 0 0 0 0 0 0 0 0 0 0 0 0 0 0 0 0 0 0 0 0 0 0 0 0 0 0 0 0 0 0 0 0 0 0 0 0 0 0 0 0 0
0 0 0 0 0 0 0 0 0 0 0 0 0 0 0 0 0 0 0 0 0 0 0 0 0 0 0 0 0 0 0 0 0 0 0 0 0 0 0 0 0 0 0 0
0 0 0 0 0 0 0 0 0 0 0 0 0 0 0 0 0 0 0 0 0 0 0 0 0 0 0 0 0 0 0 0 0 0 0 0 0 0 0 0 0 0 0 0
0 0 0 0 0 0 0 0 0 0 0 0 0 0 0 0 0 0 0 0 0 0 0 0 0 0 0 0 0 0 0 0 0 0 0 0 0 0 0 0 0 0 0 0
0 0 0 0 0 0 0 0 0 0 0 0 0 0 0 0 0 0 0 0 0 0 0 0 0 0 0 0 0 0 0 0 0 0 0 0 0 0 0 0 0 0 0 0
0 0 0 0 0 0 0 0 0 0 0 0 0 0 0 0 0 0 0 0 0 0 0 0 0 0 0 0 0 0 0 0 0 0 0 0 0 0 0 0 0 0 0 0
0 0 0 0 0 0 0 0 0 0 0 0 0 0 0 0 0 0 0 0 0 0 0 0 0 0 0 0 0 0 0 0 0 0 0 0 0 0 0 0 0 0 0 0
Wind_Speed
3 3 3 3 4 5 5 7 8 7 6 6 3 2 1 2 3 4 3 3 2 2 2 2 2 2 3 3 4 4 4 4 4 3 3 3 3 3 3 4 4 4 4 3
1 1 3 3 2 4 3 4 4 3 4 2 2 3 3 3 4 4 3 2 2 2 2 2 2 3 3 3 4 4 4 4 3 3 3 3 3 3 3 3 3 3 3 3
1 0 4 1 2 3 2 2 5 6 5 4 3 3 3 3 3 2 2 2 2 2 1 1 2 2 3 3 4 4 4 4 4 4 4 3 3 3 3 3 3 3 3 3
3 3 4 5 1 3 4 1 1 2 3 4 4 4 4 3 3 2 2 2 2 1 1 1 1 2 3 3 4 4 4 4 4 5 4 4 4 4 4 3 4 3 3 3
4 3 2 3 1 3 4 0 1 4 5 5 5 4 3 4 3 2 1 1 1 1 1 2 3 3 5 4 4 4 4 3 4 5 5 5 5 4 4 4 4 4 4 5
5 5 6 6 1 1 4 1 2 5 6 6 4 2 1 2 4 4 3 2 2 3 3 4 3 4 6 5 4 4 4 4 4 5 6 6 5 5 5 5 5 5 6 5
4 3 5 3 1 2 4 6 4 5 5 4 2 2 3 3 3 3 3 3 3 4 4 3 3 5 6 6 5 4 5 6 6 5 6 6 5 5 6 6 6 6 7 6
4 3 6 1 2 5 4 1 3 4 4 4 4 5 5 4 4 3 4 4 4 5 4 4 4 6 7 6 4 5 7 8 7 6 6 6 7 6 6 6 6 6 6 6
5 5 2 1 0 0 1 2 2 4 5 6 6 5 5 4 4 4 4 4 4 5 6 5 5 6 7 5 5 7 8 8 8 8 7 7 7 7 6 5 5 5 5 5
1 1 0 1 1 1 1 2 3 5 6 6 6 6 6 5 4 4 5 5 5 7 7 6 6 7 6 6 6 9 9 8 8 8 9 8 7 6 6 5 5 5 5 5
1 1 1 2 2 2 3 5 6 6 5 6 8 8 7 6 5 5 6 5 6 7 7 7 7 7 6 6 8 10 9 8 8 8 8 9 9 7 7 6 4 5 4 4
4 5 4 2 1 2 5 5 6 7 6 6 7 9 9 7 6 6 7 7 7 7 8 7 7 8 6 6 8 10 9 8 6 6 7 7 8 9 15 12 13 12 9 7
3 3 4 4 3 3 5 6 6 7 8 9 8 10 10 9 7 7 8 8 8 8 8 7 8 8 6 6 8 9 9 7 6 6 6 6 6 7 8 9 14 15 13 12
4 6 5 4 4 6 8 9 10 10 10 10 10 10 10 10 9 9 8 7 8 9 9 8 9 8 5 6 8 8 8 8 7 6 6 6 6 6 6 7 6 6 9 12
3 4 6 7 8 8 8 10 12 12 12 11 10 10 10 11 10 9 8 7 9 10 9 8 9 7 5 7 9 8 7 6 6 6 6 6 6 6 6 7 7 6 5 6
7 8 10 11 10 10 10 11 12 11 11 11 11 10 10 11 10 10 8 8 10 9 8 8 8 5 5 7 9 7 7 10 9 7 6 6 6 6 6 6 6 5 5 4
10 9 10 11 11 10 9 9 10 11 11 11 11 11 11 12 11 10 9 8 9 8 7 7 6 5 6 8 8 6 6 8 10 8 6 6 6 6 6 6 6 5 4 4
6 8 10 12 11 11 10 10 10 11 10 11 11 11 11 11 10 8 7 7 9 10 9 6 6 7 8 8 7 6 6 6 6 6 6 6 6 6 6 6 6 6 5 5
9 11 11 11 10 10 10 10 10 9 10 10 11 11 10 9 8 8 7 9 9 8 6 5 8 9 8 8 8 6 7 7 7 6 6 7 6 6 5 5 5 5 5 4
10 11 11 11 10 10 10 10 10 10 9 11 12 11 10 9 8 8 9 9 5 3 3 5 7 7 7 7 9 6 7 7 7 6 6 5 5 5 5 5 5 4 4 4
10 11 12 11 10 10 10 10 11 11 10 10 11 11 10 8 7 7 8 7 4 4 5 7 6 5 5 6 8 6 6 6 6 6 5 5 5 5 5 4 4 4 3 3
9 10 11 11 11 10 8 9 10 11 11 10 11 11 10 9 8 8 7 4 2 5 5 5 5 6 7 7 6 6 6 6 5 5 5 4 4 4 4 3 3 3 3 3
8 9 10 10 11 10 10 9 10 10 11 11 10 10 9 6 5 6 5 2 3 6 5 5 7 10 10 6 5 5 6 5 5 4 4 4 4 3 3 3 2 2 2 2
9 9 9 9 10 11 11 9 9 9 10 9 8 8 8 6 5 4 4 5 7 7 5 6 9 10 8 5 5 5 4 4 4 4 4 3 3 3 2 2 2 2 1 2
10 10 10 11 10 8 9 10 10 10 9 7 7 7 5 4 5 4 5 6 7 8 6 7 9 9 6 4 4 4 4 4 4 3 3 3 3 2 2 2 1 1 1 1
9 8 7 8 7 7 7 7 7 6 7 7 5 5 5 5 6 5 5 6 7 7 6 4 5 5 4 4 4 4 3 3 3 3 2 2 2 2 2 1 2 1 0 0
9 8 7 7 6 6 6 7 7 6 6 7 6 4 5 5 5 5 6 5 5 5 4 4 3 4 4 4 4 3 3 3 2 2 2 2 1 1 1 1 1 1 0 0
Wind_Direction
197 202 164 157 161 162 162 173 175 212 210 234 211 192 147 108 102 99 91 92 111 121 136 145 147 151 154 157 159 163 165 175 186 183 184 177 170 169 164 161 169 167 166 172
53 74 127 106 145 162 166 166 178 169 224 226 126 104 95 95 97 92 81 74 86 105 126 168 171 167 160 157 158 158 165 176 168 156 153 155 162 155 143 146 147 141 149 157
165 343 76 242 225 175 168 186 170 193 210 151 128 115 107 92 82 82 71 65 76 92 111 171 175 160 157 154 146 151 159 156 147 141 138 139 138 126 131 134 123 126 140 146
122 113 188 241 287 147 123 71 155 149 140 143 131 106 83 81 82 63 43 58 68 87 87 73 91 113 120 123 130 139 143 147 143 136 130 125 120 119 118 114 112 109 104 103
118 145 244 276 205 147 134 288 165 142 131 121 122 91 56 58 63 62 31 42 55 59 85 85 89 108 110 109 117 122 127 128 126 126 124 118 115 112 106 103 98 90 85 85
124 144 212 231 207 150 107 248 183 148 146 146 126 122 224 75 61 51 47 52 61 61 76 79 75 98 102 101 105 111 115 112 112 115 115 113 111 103 95 97 97 92 80 74
137 169 245 244 245 126 163 227 176 159 157 154 152 166 136 94 67 60 62 65 68 72 75 76 83 100 100 94 90 95 101 100 97 98 103 105 100 94 96 95 91 87 81 66
140 164 237 294 135 172 204 153 132 142 140 126 120 112 107 95 78 69 70 73 76 78 71 69 84 101 99 92 86 86 88 87 86 86 93 95 93 87 87 94 91 84 83 72
178 198 237 337 175 311 149 135 137 138 136 134 130 124 114 102 89 77 74 78 78 86 81 69 71 91 98 85 86 90 87 84 85 84 79 80 86 88 84 82 88 87 86 80
131 261 0 39 59 41 88 128 127 134 136 137 133 128 117 107 93 82 74 80 84 89 87 77 72 78 86 90 92 93 89 85 83 85 81 72 69 71 79 79 87 89 87 84
151 192 78 28 43 62 82 96 102 103 111 127 127 124 118 112 99 87 77 71 79 88 88 80 77 79 82 89 96 94 90 87 84 83 87 79 70 59 67 59 70 92 89 88
205 196 164 174 102 98 109 110 115 112 102 109 121 122 115 106 97 91 85 79 80 79 80 78 77 74 72 83 95 99 96 91 89 90 89 91 91 76 57 64 64 66 75 86
176 128 120 119 98 96 106 104 104 109 116 114 109 114 110 102 94 91 85 81 82 82 79 77 77 72 64 74 89 96 101 100 98 97 97 96 95 97 90 67 61 59 61 68
133 120 117 115 108 100 105 103 98 93 97 104 106 105 104 98 93 88 84 81 83 81 75 74 73 63 55 77 89 92 94 95 97 96 97 98 97 96 98 97 85 63 52 59
105 112 126 118 108 103 105 107 101 96 95 96 99 101 101 98 93 86 82 84 83 76 71 71 69 54 45 74 87 90 92 92 90 90 90 93 94 94 93 92 90 85 74 59
110 108 116 117 116 113 112 112 110 107 104 102 100 99 97 95 90 82 73 76 81 76 69 70 67 52 58 79 85 83 83 92 92 92 91 89 90 92 92 90 86 81 74 64
130 133 132 128 124 119 117 116 116 115 110 107 107 104 100 96 88 81 74 71 77 74 67 69 66 61 69 79 86 88 86 86 87 87 87 89 91 92 93 93 90 82 67 55
126 129 134 133 130 125 119 115 113 112 113 114 111 105 102 101 99 95 89 85 79 66 53 52 64 71 70 74 82 88 91 88 85 87 87 86 87 88 90 91 90 84 73 65
117 117 119 122 123 122 121 119 117 114 114 114 111 106 102 100 100 97 90 82 78 69 42 47 73 75 73 77 85 85 91 92 88 86 88 90 87 85 87 87 84 80 76 71
116 116 115 114 114 117 118 118 116 113 114 114 110 105 99 95 95 93 85 73 57 59 63 73 76 75 74 81 86 87 91 93 93 91 88 88 89 87 86 87 85 82 76 71
120 118 118 117 114 113 117 119 117 114 113 114 114 112 107 98 91 88 87 76 34 47 71 76 75 75 75 84 85 88 90 92 93 94 93 93 93 91 89 86 84 81 76 68
119 121 120 118 114 110 110 111 114 115 113 111 110 111 108 101 93 82 71 78 71 78 77 73 75 83 86 86 85 89 91 93 93 93 94 96 99 98 93 89 86 81 72 63
113 114 116 117 116 113 106 107 112 115 116 118 118 117 113 107 102 104 92 62 80 85 82 79 91 92 88 81 84 87 91 93 94 96 98 98 99 100 99 96 89 85 75 61
109 109 110 110 109 108 106 104 102 104 105 105 108 113 115 108 84 73 100 104 96 90 82 88 93 92 88 84 86 87 88 91 94 96 96 94 95 96 97 97 92 80 72 64
112 110 110 111 109 109 110 109 104 102 102 99 96 93 94 104 113 111 103 103 102 95 85 82 86 87 84 85 88 90 90 93 101 106 104 104 105 107 108 106 100 89 72 50
107 108 108 108 112 115 114 112 111 112 112 106 95 89 91 92 99 102 100 100 97 93 88 82 82 81 82 85 87 90 92 95 96 97 104 107 110 110 110 108 105 100 85 30
101 102 103 99 96 104 109 112 114 115 118 119 111 102 101 100 99 100 100 100 97 93 90 88 86 87 88 88 87 88 89 91 93 98 108 116 124 133 143 146 150 158 181 288